[[{"header":{"parameterUnit":"m.s-1","parameterCategory":1,"la1":30.2992,"la2":30.254,"lo1":-89.0895,"lo2":-89.0443,"dy":0.0025,"dx":0.0025,"nx":19,"ny":19,"refTime":"2026-03-29T09:00:00:Z","depth":0,"parameterNumber":2,"parameterNumberName":"U-component_of_WINDS"},"data":[0,0,0,-4.152,-4.1524,-4.1733,-4.1734,-4.1992,-4.1994,0,0,0,0,0,0,0,0,0,0,0,-4.1452,-4.1454,-4.1519,-4.1524,-4.1733,-4.1734,-4.1991,-4.1994,0,0,0,0,0,0,0,0,0,0,0,-4.1451,-4.1453,-4.1455,-4.1525,-4.1732,-4.1734,-4.1991,-4.1837,0,0,0,0,0,0,0,0,0,0,-4.1636,-4.1567,-4.1453,-4.1455,-4.1526,-4.1732,-4.1734,-4.1829,-4.1846,-4.1893,0,-4.1933,0,-4.1968,-4.2011,-4.2011,0,0,0,-4.1529,-4.1553,-4.1615,-4.1455,-4.1528,-4.1732,-4.164,-4.1839,-4.1858,-4.1916,-4.1937,-4.1947,-4.1972,-4.2012,-4.2013,-4.2269,-4.227,0,0,-4.1517,-4.1487,-4.1601,-4.1627,-4.1593,-4.1633,-4.1646,-4.1851,-4.1872,-4.1938,-4.1953,-4.1976,-4.2014,-4.2016,-4.2268,-4.2269,0,0,0,-4.1481,-4.1478,-4.1535,-4.1616,-4.1654,-4.1639,-4.1654,-4.1863,-4.1884,-4.1956,-4.1979,-4.2015,-4.2018,-4.2267,-4.2268,-4.2286,0,0,0,-4.1474,-4.1457,-4.153,-4.1513,-4.165,-4.1761,-4.1662,-4.187,-4.1894,-4.1978,-4.2015,-4.2021,-4.2266,-4.2268,-4.2283,-4.2298,0,0,0,-4.144,-4.1453,-4.1482,-4.1511,-4.1599,-4.1758,-4.1791,-4.1876,-4.1908,-4.2012,-4.2021,-4.2265,-4.2267,-4.2281,-4.2295,-4.2356,0,0,0,-4.1395,-4.1495,-4.1481,-4.1602,-4.1597,-4.1768,-4.179,-4.1919,-4.201,-4.2017,-4.2266,-4.2268,-4.228,-4.2292,-4.2353,-4.24,-4.2417,0,0,-4.1503,-4.1507,-4.158,-4.1574,-4.1738,-4.1739,-4.1907,-4.202,-4.2058,-4.2197,-4.2203,-4.2284,-4.2294,-4.2355,-4.2528,-4.2541,0,0,0,-4.1604,-4.1656,-4.1706,-4.1791,-4.188,-4.1957,-4.2048,-4.209,-4.2209,-4.2123,-4.2325,-4.2332,-4.2369,-4.2392,-4.2404,-4.2437,-4.2279,-4.2278,-4.2278,-4.1711,-4.1755,-4.1879,-4.1948,-4.203,-4.2123,-4.2194,-4.2267,-4.2288,-4.2335,-4.2375,-4.2474,-4.2501,-4.251,-4.2544,-4.2405,-4.2406,-4.2406,-4.2406,-4.1872,-4.1952,-4.1977,-4.2106,-4.2152,-4.2262,-4.2356,-4.2367,-4.2475,-4.2448,-4.2482,-4.2446,-4.2523,-4.2555,-4.2408,-4.2407,-4.2407,-4.2407,-4.2407,-4.1945,-4.1991,-4.2041,-4.2168,-4.2262,-4.233,-4.2433,-4.2472,-4.251,-4.2544,-4.259,-4.259,-4.2593,-4.2564,-4.2564,-4.2565,-4.2565,-4.2565,-4.2565,-4.2001,-4.2056,-4.2138,-4.2241,-4.23,-4.2384,-4.248,-4.254,-4.2617,-4.2637,-4.2638,-4.2653,-4.2523,-4.2488,-4.2571,-4.257,-4.2569,-4.2569,-4.2568,-4.2144,-4.2118,-4.2243,-4.2303,-4.2427,-4.2517,-4.2567,-4.2687,-4.2742,-4.2792,-4.2801,-4.2699,-4.2705,-4.2696,-4.2668,-4.2792,-4.2792,-4.2792,-4.2792,-4.2204,-4.2212,-4.2348,-4.2441,-4.2537,-4.2595,-4.2735,-4.2811,-4.2885,-4.2923,-4.2911,-4.2878,-4.2867,-4.2879,-4.2867,-4.284,-4.3005,-4.3006,-4.3006,-4.2294,-4.2313,-4.2424,-4.2495,-4.2596,-4.2681,-4.2814,-4.2921,-4.3,-4.3015,-4.2953,-4.2943,-4.289,-4.287,-4.2881,-4.286,-4.2813,0,0]},{"header":{"parameterUnit":"m.s-1","parameterCategory":1,"la1":30.2992,"la2":30.254,"lo1":-89.0895,"lo2":-89.0443,"dy":0.0025,"dx":0.0025,"nx":19,"ny":19,"refTime":"2026-03-29T09:00:00:Z","depth":0,"parameterNumber":3,"parameterNumberName":"V-component_of_WINDS"},"data":[0,0,0,3.7767,3.7768,3.7809,3.7809,3.7865,3.7866,0,0,0,0,0,0,0,0,0,0,0,3.7758,3.7758,3.7767,3.7768,3.7809,3.7809,3.7865,3.7866,0,0,0,0,0,0,0,0,0,0,0,3.7757,3.7758,3.7759,3.7768,3.7809,3.7809,3.7865,3.7833,0,0,0,0,0,0,0,0,0,0,3.7792,3.7786,3.7758,3.7759,3.7769,3.7809,3.7809,3.7831,3.7835,3.7848,0,3.7862,0,3.7865,3.787,3.787,0,0,0,3.7766,3.7783,3.7792,3.7759,3.7769,3.7809,3.779,3.7833,3.7837,3.7853,3.7863,3.7865,3.7866,3.787,3.787,3.7958,3.7959,0,0,3.7764,3.7766,3.7789,3.7795,3.7789,3.7789,3.7791,3.7835,3.7846,3.7863,3.7866,3.7867,3.7871,3.7871,3.7958,3.7959,0,0,0,3.7759,3.7765,3.7772,3.7793,3.78,3.779,3.7793,3.7844,3.7846,3.7866,3.7867,3.7871,3.7872,3.7957,3.7958,3.7986,0,0,0,3.7757,3.7762,3.7772,3.7774,3.7799,3.7822,3.78,3.7843,3.7848,3.7867,3.7871,3.7872,3.7957,3.7958,3.7984,3.7998,0,0,0,3.7754,3.7762,3.7768,3.7774,3.7791,3.7821,3.7826,3.7844,3.7848,3.787,3.7872,3.7956,3.7958,3.7982,3.7996,3.8022,0,0,0,3.7751,3.7792,3.7769,3.7815,3.7791,3.7839,3.7826,3.7861,3.7883,3.7871,3.7957,3.7958,3.7982,3.7994,3.802,3.8045,3.8055,0,0,3.7805,3.7799,3.7826,3.7806,3.7859,3.7832,3.7889,3.7906,3.7906,3.7941,3.7943,3.7985,3.7995,3.8022,3.8115,3.8123,0,0,0,3.7844,3.7863,3.7876,3.7898,3.7913,3.7926,3.7935,3.7941,3.7971,3.7924,3.8002,3.8008,3.8023,3.8035,3.8042,3.8055,3.7964,3.7964,3.7963,3.7922,3.792,3.7964,3.7967,3.7988,3.7997,3.8013,3.8024,3.8015,3.8033,3.8043,3.81,3.8114,3.8119,3.8132,3.8056,3.8056,3.8057,3.8057,3.8,3.8027,3.8015,3.8053,3.8051,3.8083,3.8093,3.8086,3.8115,3.8092,3.8105,3.8079,3.8128,3.814,3.8059,3.8058,3.8058,3.8058,3.8058,3.805,3.8063,3.8071,3.8102,3.8126,3.8127,3.8156,3.8152,3.8149,3.8162,3.8173,3.8172,3.8171,3.8168,3.8168,3.8168,3.8168,3.8168,3.8169,3.81,3.8108,3.8133,3.8152,3.8166,3.8183,3.8193,3.8205,3.8219,3.8214,3.8214,3.8203,3.8134,3.8116,3.8172,3.8171,3.8171,3.817,3.817,3.8178,3.816,3.8199,3.8213,3.8235,3.8259,3.8255,3.8281,3.8291,3.8306,3.8292,3.8242,3.8236,3.823,3.8215,3.8293,3.8293,3.8293,3.8293,3.8221,3.8218,3.8257,3.8278,3.8299,3.8299,3.8343,3.8351,3.8356,3.8362,3.8351,3.8331,3.8325,3.8322,3.8315,3.8301,3.8399,3.8399,3.8399,3.8269,3.8268,3.8306,3.8311,3.8329,3.8344,3.8384,3.841,3.8412,3.8403,3.8367,3.8362,3.8331,3.8321,3.831,3.8298,3.8273,0,0]}]]